Regional Weather Roundup
Issued by NWS San Angelo, TX

Home | Current Version | Previous Version | Text Only | Print | Product List | Glossary On
Versions: 1 2 3 4 5 6 7 8 9 10 11 12 13 14 15 16 17 18 19 20 21 22 23 24 25 26 27 28 29 30 31 32 33 34 35 36 37 38 39 40 41 42 43 44 45 46 47 48 49 50
000
ASUS44 KSJT 170610
RWRSJT
WEST CENTRAL TEXAS REGIONAL WEATHER ROUNDUP
NATIONAL WEATHER SERVICE SAN ANGELO TX
1200 AM CST SUN DEC 17 2017

NOTE: "FAIR" INDICATES FEW OR NO CLOUDS BELOW 12,000 FEET WITH NO
SIGNIFICANT WEATHER AND/OR OBSTRUCTIONS TO VISIBILITY.

TXZ049-054-064>066-071>073-076>078-098-099-113-114-127-128-139-140-
154-155-168>170-170700
...LOCATIONS ACROSS WEST CENTRAL TEXAS...

CITY           SKY/WX    TMP DP  RH WIND       PRES   REMARKS
SAN ANGELO     CLOUDY    42  38  85 SW16      29.96R WCI  34
ABILENE        CLOUDY    43  41  93 S14       29.94S WCI  36
DYESS AFB      CLOUDY    44  41  89 S14       29.92S WCI  37
JUNCTION       CLOUDY    47  44  90 SW5       29.99R
SWEETWATER     CLEAR     40  40 100 S9        29.92R WCI  35
BROWNWOOD      NOT AVBL
COLEMAN        CLOUDY    45  42  89 S8        29.98R
SONORA         CLOUDY    43  43 100 S10       30.02F FOG     WCI  37
OZONA          CLOUDY    41  39  93 SW10G16   30.00S FOG     WCI  35
BRADY          NOT AVBL
$$

TEXAS PANHANDLE/OKLAHOMA PANHANDLE

CITY           SKY/WX    TMP DP  RH WIND       PRES   REMARKS
AMARILLO       MOCLDY    36  34  92 S13       29.82S WCI  27
BORGER         CLEAR     42  34  73 S9        29.82R WCI  37
CANADIAN       MOCLDY    42  38  83 S15G21    29.85R WCI  35
DALHART        CLOUDY    28  22  78 W7        29.80R WCI  21
DUMAS          CLEAR     31  26  80 S8        29.79S WCI  24
GUYMON         NOT AVBL
HEREFORD       CLEAR     38  37  93 MISG      29.81R
PAMPA          PTCLDY    41  33  73 S15       29.83S WCI  33
PERRYTON       PTCLDY    43  32  64 SE13      29.82R WCI  36
$$

SOUTHERN PANHANDLE/SOUTH PLAINS/ROLLING PLAINS

CITY           SKY/WX    TMP DP  RH WIND       PRES   REMARKS
LUBBOCK        PTCLDY    37  34  89 S12       29.83R WCI  29
SNYDER         PTCLDY    36  36 100 S10       29.90S WCI  28
CHILDRESS      PTCLDY    39  36  89 SE12      29.90S WCI  32
SEMINOLE       CLEAR     33  33  99 SW6       29.85S WCI  27
$$

PERMIAN BASIN

CITY           SKY/WX    TMP DP  RH WIND       PRES   REMARKS
MIDLAND        CLEAR     38  35  89 S9        29.87S WCI  31
ODESSA         CLOUDY    39  36  89 SW14      29.88R WCI  31
WINK           NOT AVBL
$$

FAR WEST/SOUTHWEST MOUNTAINS/TRANS PECOS

CITY           SKY/WX    TMP DP  RH WIND       PRES   REMARKS
ALPINE         PTCLDY    48  36  61 SW18G24   30.02R
DRYDEN           N/A     42  40  92 S5        29.98R WCI  39
EL PASO        CLOUDY    50  32  50 S7        29.92R
FORT STOCKTON  CLOUDY    42  37  82 S10       29.92R WCI  36
GUADALUPE PASS CLOUDY    45  26  47 SW35G46   29.88R WCI  35
MARFA          NOT AVBL
PECOS          CLEAR     36  33  88 SW7       29.89R WCI  30
$$

DALLAS/FORT WORTH METROPLEX

CITY           SKY/WX    TMP DP  RH WIND       PRES   REMARKS
DFW AIRPORT    CLOUDY    45  43  93 SE10      30.03S WCI  40
FTW MEACHAM    LGT RAIN  45  43  93 SE10      30.03F WCI  40
DAL-EXECUTIVE  CLOUDY    44  43  96 SE6       30.05S
GRAND PRAIRIE  CLOUDY    44  44 100 CALM      30.06F
ADDISON        CLOUDY    43  42  95 S8        30.07S WCI  38
MESQUITE       CLOUDY    42  42  98 S5        30.09S WCI  39
LANCASTER      DRIZZLE   43  42  96 CALM      30.07S
$$

NORTH CENTRAL TEXAS

CITY           SKY/WX    TMP DP  RH WIND       PRES   REMARKS
SHRMAN/DENISON CLOUDY    43  42  96 S10       30.07S WCI  37
GAINESVILLE    CLOUDY    42  41  95 S13       30.05R WCI  36
BRIDGEPORT     CLOUDY    43  43  99 S9        30.04R WCI  38
DENTON         CLOUDY    43  43 100 S10       30.05R WCI  37
WAXAHACHIE     CLOUDY    43  43 100 CALM      30.07F FOG
GRANBURY       CLOUDY    45  42  91 SE9       30.05S WCI  40
$$

WESTERN NORTH TEXAS

CITY           SKY/WX    TMP DP  RH WIND       PRES   REMARKS
WICHITA FALLS  CLOUDY    44  40  85 SE10      29.98F WCI  39
VERNON         CLOUDY    46  35  64 SE9       29.95F
BRECKENRIDGE   CLOUDY    46  42  84 SE8       29.95F
COMANCHE       CLOUDY    43  43 100 SE7       29.99F FOG     WCI  39
$$

CENTRAL AND SOUTH CENTRAL TEXAS

CITY           SKY/WX    TMP DP  RH WIND       PRES   REMARKS
AUSTIN/BERGSTM CLOUDY    45  42  89 NE6       30.04F
WACO           CLOUDY    44  42  93 E7        30.05F
HILLSBORO      LGT RAIN  44  44  99 SE5       30.04F
TEMPLE         CLOUDY    43  42  97 E5        30.06S
KILLEEN-GRAY   CLOUDY    42  42  99 SE5       30.02F WCI  39
FORT HOOD      CLOUDY    41  41 100 SE7       30.00F WCI  36
GEORGETOWN     CLOUDY    43  42  97 CALM      30.06S
LAGO VISTA     CLOUDY    44  44  99 E3        30.04R FOG
SAN MARCOS     CLOUDY    45  44  97 N6        30.05F
NEW BRAUNFELS  CLOUDY    45  44  97 N5        30.02F
RANDOLPH AFB   CLOUDY    46  45  93 CALM      30.05R
SAN ANTONIO    CLOUDY    46  44  93 CALM      30.04R
STINSON        CLOUDY    47  46  97 CALM      30.04R
PLEASANTON     NOT AVBL
LA GRANGE      CLOUDY    46  46  97 NE3       30.03S
GIDDINGS       MOCLDY    43  42  97 CALM      30.04F
$$

EAST TEXAS

CITY           SKY/WX    TMP DP  RH WIND       PRES   REMARKS
PARIS          RAIN      43  42  97 E10       30.07F FOG     WCI  37
CLARKSVILLE    NOT AVBL
TYLER          RAIN      44  44 100 E8        30.06F FOG     WCI  39
LONGVIEW       HVY RAIN  44  44 100 E3        30.10F FOG
PALESTINE      CLOUDY    45  44  96 E8        30.06F
NACOGDOCHES    LGT RAIN  44  43  96 NW15      30.16R WCI  37
$$

TEXAS HILL COUNTRY AND EDWARDS PLATEAU

CITY           SKY/WX    TMP DP  RH WIND       PRES   REMARKS
LLANO          CLOUDY    45  43  93 SE7       30.06S
HORSESHOE BAY  CLOUDY    44  44 100 SE3       30.04S
KERRVILLE      CLOUDY    44  41  90 CALM      30.02R FOG
FREDERICKSBRG  CLOUDY    43  41  93 CALM      30.02R FOG
ROCKSPRINGS    NOT AVBL
HONDO          CLOUDY    48  44  86 E3        30.04R
UVALDE         CLOUDY    45  44  95 CALM      30.06R FOG
DEL RIO        CLOUDY    45  44  97 SE10      30.01S WCI  40
$$

SOUTHEAST TEXAS

CITY           SKY/WX    TMP DP  RH WIND       PRES   REMARKS
COLLEGE STN    CLOUDY    46  44  93 N8        30.05S
CALDWELL       PTCLDY    43  43  97 NE3       30.04F
CROCKETT         N/A     45  41  87 NE10G18   30.09F WCI  39
BRENHAM        CLOUDY    46  46  98 N5        30.05R
HUNTSVILLE     LGT RAIN  44  44 100 NE8       30.03F FOG     WCI  39
CONROE         LGT RAIN  46  46 100 N6        30.03F
HOUSTON BUSH   CLOUDY    48  47  96 N10       30.03F
HOUSTON HOBBY  CLOUDY    49  48  97 N12       30.02F
PERLAND        CLOUDY    50  50 100 N10       30.03F
WHARTON        CLOUDY    47  45  91 N7        30.04S
$$

THE UPPER TEXAS COAST

CITY           SKY/WX    TMP DP  RH WIND       PRES   REMARKS
ORANGE         LGT RAIN  59  59  99 SE13G22   29.95F
PORT ARTHUR    HVY RAIN  60  58  92 SE6G18    29.96R FOG
GALVESTON      MOCLDY    61  59  93 NW12G22   30.01R
ANGLETON       CLOUDY    51  49  92 NW8       30.02S
BAY CITY       CLOUDY    50  49  99 N7        30.02F
$$

TEXAS COASTAL BEND, RIO GRANDE PLAINS DEEP SOUTH TEXAS

CITY           SKY/WX    TMP DP  RH WIND       PRES   REMARKS
VICTORIA       CLOUDY    47  45  93 N8        30.03F
BEEVILLE       CLOUDY    47  46  96 N3        30.05S
ROCKPORT       CLOUDY    48  47  96 N7        30.05R
PORT ARANSAS   NOT AVBL
PORT LAVACA    CLOUDY    48  46  93 N7        30.04S
CORPUS CHRISTI CLOUDY    48  46  93 N5        30.05R
KINGSVILLE NAS CLOUDY    49  48  97 NW5       30.07R
COTULLA        CLOUDY    47  45  93 S5        30.06R
LAREDO         CLOUDY    48  46  93 MISG      30.06R
BROWNSVILLE    CLOUDY    50  50 100 W3        30.07F FOG
PORT ISABEL    FOG       50  50 100 W5        30.06F VSB 3/4
HEBBRONVILLE   FOG       46  46  99 CALM      30.05S VSB 3/4
MCALLEN        CLOUDY    51  49  92 CALM      30.08S FOG
WESLACO        CLOUDY    49  47  92 CALM      30.07R
FALFURRIAS     CLOUDY    49  47  91 CALM      30.07R
EDINBURG       CLOUDY    51  48  91 CALM      30.08S
$$




USA.gov is the U.S. government's official web portal to all federal, state and local government web resources and services.